User: anonymous   Login
Location: Unspecified
(0.0000°N, 0.0000°E)
Time: 22:20:40
(UTC+00:00)
Language:

ASUSAT - Orbit

View from above orbital plane
View from above orbital plane
View from above satellite
View from above satellite

Ground track
Ground track

The orbit data is extracted from the following two-line orbital elements,

1 26065U 00004E   18344.17978828 -.00000003  00000-0  18898-4 0  9995
2 26065 100.1936  94.3418 0036392 222.4183 137.4184 14.36855226989102
Epoch (UTC): 10 December 2018 04:18:53
Eccentricity: 0.0036392
inclination: 100.1936°
perigee height: 743 km
apogee height: 795 km
right ascension of ascending node: 94.3418°
argument of perigee: 222.4183°
revolutions per day: 14.36855226
mean anomaly at epoch: 137.4184°
orbit number at epoch: 98910

The dashed part of the orbit path shows where the satellite is in the earth's shadow,  

DLR